Location: Casupo
(10.0767°N, 67.2344°W)
Time: 01:03:48
(UTC+00:00)

Daily predictions for brighter satellites

Satellite Brightness Start Highest point End
(mag) Time Altitude Azimuth Time Altitude Azimuth Time Altitude Azimuth
Cosmos 1805 3.4 00:01:10 10° NNE 00:04:41 45° E 00:05:14 41° ESE
Cosmos 1697 Rocket 3.6 00:00:26 10° NNE 00:05:14 29° ENE 00:06:31 27° E
NATO 3D Rocket 4.1 00:02:12 10° W 00:06:44 49° NNW 00:11:38 11° ENE
DELTA 2 DEB (DPAF) 3.8 00:04:57 10° NNE 00:09:08 76° ESE 00:13:10 11° S
Cosmos 44 Rocket 3.0 00:04:37 10° NNW 00:09:18 79° ENE 00:11:18 34° SSE
SWIFT 3.8 00:08:14 10° SSW 00:10:16 20° S 00:10:16 20° S
SPOT 1/Viking Rocket 3.5 00:09:07 26° SSE 00:11:59 66° ENE 00:17:03 10° N
Cosmos 1805 Rocket 4.2 00:09:35 10° NNW 00:13:55 55° W 00:17:56 12° S
Ariane H10+ 4.2 00:06:58 10° SW 00:14:12 42° SSE 00:22:07 26° ESE
SL-8 R/B 3.8 00:09:34 10° NNW 00:14:14 61° NE 00:15:32 43° ESE
Cosmos 1733 4.3 00:10:57 10° NNW 00:14:14 38° W 00:17:02 13° SSW
Cosmos 1674 3.3 00:17:37 35° NE 00:17:37 35° NE 00:19:55 10° NNE
Cosmos 1980 Rocket 3.9 00:19:33 10° NNE 00:22:11 16° ENE 00:22:11 16° ENE
FALCON 9 R/B 3.7 00:19:56 10° NNW 00:24:19 34° NE 00:28:29 25° E
Cosmos 1666 Rocket 3.9 00:20:50 10° NNE 00:24:32 44° ENE 00:24:32 44° ENE
ARIANE 5 R/B 3.3 00:13:18 10° W 00:25:19 35° SSW 00:26:14 32° S
Sich 1 4.5 00:21:29 10° NNW 00:25:23 35° W 00:29:10 10° SSW
Cosmos 2026 Rocket 4.4 00:22:32 10° SSW 00:28:43 64° W 00:34:49 10° N
Haruka 4.3 00:12:08 10° WNW 00:28:50 48° SW 00:31:16 31° S
Resurs 01 Rocket 2.0 00:31:19 47° NE 00:31:19 47° NE 00:35:02 10° N
FUSE 3.9 00:28:07 10° SW 00:33:18 57° SSE 00:33:18 57° SSE
GPS 2-12 Rocket1 4.4 00:29:27 10° WNW 00:33:29 33° N 00:35:25 23° NNE
Cosmos 2360 4.2 00:29:17 10° NNW 00:34:59 78° WSW 00:37:02 41° S
ATLAS CENTAUR R/B 4.0 00:24:07 10° NNW 00:36:50 83° ENE 00:40:37 40° SE
SJ-6B 4.3 00:36:42 25° SW 00:37:49 30° W 00:41:01 10° NW
Ariane 3 Deb 3.7 00:38:51 10° WSW 00:40:30 27° WSW 00:40:30 27° WSW
CZ-4B R/B 2.9 00:41:06 65° SSE 00:41:54 84° ENE 00:47:10 10° N
GPS 2-15 Rocket1 3.1 00:39:22 10° WSW 00:44:10 82° NNW 00:44:10 82° NNW
CZ-4 R/B 2.7 00:46:35 31° WSW 00:47:12 33° W 00:50:44 10° NW
Centaur D-1AR AC-39 3.4 00:53:07 10° WNW 00:56:41 36° N 01:01:10 18° ENE
Lacrosse 5 rocket 2.8 00:53:25 10° NNW 00:55:47 34° NNW 00:55:47 34° NNW
MOS 1-B Rocket 4.1 01:04:12 69° S 01:05:07 85° WSW 01:11:17 10° NNW
USA 59 Rocket 3.9 01:12:15 10° W 01:14:30 11° WSW 01:16:56 10° SW
VEP-3 4.0 01:11:44 10° W 01:16:25 26° SW 01:16:25 26° SW
Okean O Rocket 4.2 01:40:18 17° WNW 01:40:18 17° WNW 01:41:45 10° NW
Cosmos 1980 Rocket 4.4 02:01:50 10° NW 02:03:57 21° NW 02:03:57 21° NW
SL-16 R/B 4.5 06:43:02 22° ENE 06:43:04 22° ENE 06:47:43 10° NNE
Lacrosse 5 4.0 07:23:06 21° E 07:23:06 21° E 07:25:25 10° ENE
CZ-2C R/B 4.2 07:28:20 10° NNE 07:30:33 27° NE 07:30:33 27° NE
Gbstr 26 Del rocket 4.2 07:52:26 50° NNW 07:52:26 50° NNW 07:57:48 10° NNE
PAYLOAD A 4.3 07:48:54 10° NNE 07:53:37 70° NE 07:53:37 70° NE
Iridium 4 Rocket 4.1 07:51:27 10° N 07:54:57 50° N 07:54:57 50° N
Cosmos 1943 Rocket 4.1 07:53:38 17° SE 07:56:25 24° ESE 08:00:51 10° NE
ARIANE 5 R/B 4.3 07:58:05 39° SSE 07:58:05 39° SSE 08:14:13 10° E
Cosmos 1758 Rocket 4.3 08:07:08 48° N 08:07:08 48° N 08:10:21 10° N
GPS 2-17 Rocket1 4.1 08:08:05 38° SE 08:08:05 38° SE 08:11:36 10° E
Aurora 2 Rocket 4.3 08:08:15 28° NW 08:09:30 30° N 08:15:21 10° NE
Thor Agena Rocket 3.4 08:05:44 10° N 08:10:58 79° WNW 08:10:58 79° WNW
Skynet4D Del rocket 4.4 08:09:46 54° SW 08:11:54 82° SSE 08:20:18 10° ENE
Cosmos 1666 4.1 08:14:01 31° E 08:14:01 31° E 08:17:03 10° NNE
Cosmos 2058 Rocket 3.9 08:13:13 10° N 08:16:07 40° NNW 08:16:07 40° NNW
Cosmos 2278 Rocket 2.1 08:21:15 53° SSW 08:22:39 87° WNW 08:28:20 10° NNE
Ariane H10-3 3.2 08:26:52 18° SE 08:26:52 18° SE 08:28:05 10° SE
SL-16 R/B 3.5 08:28:07 28° WNW 08:28:07 28° WNW 08:31:50 10° NW
Cosmos 1500 3.4 08:29:08 53° N 08:29:08 53° N 08:31:49 10° N
ARIANE 5 R/B 4.4 08:23:40 31° WSW 08:29:00 38° SSW 08:35:25 10° SE
Ariane H10-3 4.2 08:05:22 10° W 08:30:45 41° SSW 08:35:27 10° SE
SWIFT 3.5 08:35:16 22° NW 08:37:11 36° NNE 08:40:52 10° E
Cosmos 1862 3.8 08:38:08 41° NW 08:38:08 41° NW 08:41:04 10° N
Cosmos 44 4.0 08:36:21 22° S 08:39:37 56° ESE 08:44:52 10° NNE
H-2A R/B 1.9 08:35:13 10° N 08:40:23 81° WNW 08:43:06 28° SSW
CSL-04 DEB 4.0 08:37:22 10° N 08:41:06 83° WNW 08:41:58 52° SSW
Ariane H10 3.5 08:39:24 35° WSW 08:41:08 44° SSW 08:44:25 10° ESE
Cosmos 1271 Rocket 4.2 08:42:57 22° NW 08:42:57 22° NW 08:44:38 10° NNW
Cosmos 1603 4.4 08:38:23 10° NW 08:42:49 32° W 08:42:49 32° W
H-2A R/B 3.3 08:45:30 16° NNW 08:46:21 18° N 08:49:35 10° NE
Cosmos 1939 Rocket 3.0 08:43:51 10° NNE 08:47:44 70° E 08:50:14 21° S
Cosmos 192 4.4 08:44:54 19° S 08:48:20 74° ESE 08:53:12 10° NNE
Cosmos 2084 3.3 08:47:19 38° SW 08:48:56 78° WNW 08:53:10 10° NNE
Cosmos 2151 3.7 08:45:17 10° S 08:49:18 51° E 08:53:17 10° NNE
Meteor 2-15 4.4 08:48:18 20° SSW 08:52:29 60° W 08:58:26 10° N
NOSS 3-1 (C) 2.9 08:52:37 34° WSW 08:54:18 53° WNW 08:58:52 10° NNE
ARIANE 5 R/B 2.3 08:53:53 36° SW 08:54:58 53° S 09:05:28 10° E
Stardust Del rocket 4.1 08:53:13 18° WNW 08:56:11 75° NNE 09:03:49 10° ESE
Cosmos 1802 Rocket 4.0 08:51:25 10° S 08:57:45 79° W 09:04:11 10° N
Cosmos 1484 Rocket 3.0 08:57:52 10° N 09:01:29 45° WNW 09:03:02 28° SW
Lacrosse 5 3.3 09:02:20 19° W 09:04:01 23° WNW 09:07:57 10° N
ARIANE 5 R/B 3.5 08:59:25 10° NNE 09:04:10 44° ESE 09:08:56 10° S
ARIANE 5 R/B 4.3 09:00:35 19° WSW 09:06:27 32° SSW 09:09:53 10° SE
Meteor 2-14 Rocket 4.3 09:00:53 10° N 09:06:56 78° W 09:13:00 10° S
Cosmos 2173 Rocket 4.5 09:04:29 16° SSW 09:09:03 40° W 09:14:51 10° NNW
NOSS 3-1 (A) 2.9 09:07:13 11° SSW 09:11:37 70° ESE 09:16:17 10° NNE
Cosmos 1076 Rocket 3.7 09:10:39 10° S 09:14:50 72° E 09:19:01 10° N
USA 305 2.0 09:13:49 21° SW 09:15:57 73° WNW 09:18:54 10° NNE
Meteor 2-21 4.4 09:10:20 10° N 09:16:22 78° W 09:22:28 10° S
Cosmos-2242 3.9 09:14:35 10° NNW 09:18:15 28° W 09:21:53 10° SSW
USA 290 3.0 09:17:22 20° SW 09:18:56 32° WNW 09:21:50 10° N
ATLAS 3B R/B 2.9 09:13:05 10° SSW 09:19:34 74° ESE 09:26:34 10° NNE
Ariane H10+ 3.4 09:17:30 14° SW 09:20:44 35° SSE 09:35:48 10° E
Meteor 1-26 Rocket 4.1 09:18:11 10° N 09:23:33 85° W 09:28:58 10° S
Cosmos 1953 Rocket 3.9 09:20:07 10° SSW 09:24:12 44° W 09:28:19 10° NNW
Cosmos 1782 4.0 09:21:53 10° NW 09:24:46 21° W 09:27:15 12° SW
GPS 2-15 Rocket1 3.4 09:21:23 11° W 09:25:45 48° SSW 09:30:16 10° SE
FUSE 4.5 09:22:18 10° WNW 09:27:37 61° NNE 09:32:55 10° ESE
GOES 2 Rocket 4.0 09:24:15 10° NW 09:28:52 59° NNE 09:34:46 10° ESE
ISS -2.7 09:27:28 14° WSW 09:29:47 31° NW 09:32:46 10° NNE
Cosmos 1833 Rocket 3.7 09:25:24 10° N 09:30:51 51° ENE 09:36:18 10° SSE
Ariane H10 3.8 09:27:00 11° WSW 09:32:31 24° S 09:35:24 10° SE
H-2A R/B 3.4 09:35:59 10° NNW 09:38:43 26° WNW 09:41:29 10° SW
Cosmos 1943 Rocket 3.4 09:35:24 10° SW 09:39:52 24° WNW 09:44:23 10° NNW
Meteor 2-21 Rocket 4.5 09:37:27 10° NNW 09:43:24 63° W 09:49:25 10° S
ARIANE 5 R/B 4.0 09:40:30 10° SW 09:43:26 38° SSE 09:54:42 10° E
USA 307 2.8 09:43:04 10° SW 09:46:37 44° WNW 09:49:46 10° NNE
ARGOS 3.8 09:43:31 10° N 09:48:27 37° WNW 09:53:24 10° SW
GPS 2-17 Rocket1 3.5 09:45:29 10° W 09:50:10 61° NNW 09:54:50 10° ENE
CZ-3 R/B 4.2 09:35:06 10° W 09:52:38 21° SW 10:00:20 10° S
